Effective Sunday, March 17, 2024, the National Weather Service National Data Buoy Center will discontinue its Dial-A-Buoy Interactive Voice Response system. For more information, see Service Change Notice 24-06 (PDF).

Station 46053 (LLNR 196) - EAST SANTA BARBARA - 12NM Southwest of Santa Barbara, CA Image indicating link to RSS feed of recent meteorological observations for station 46053


Conditions at 46053 as of
(10:30 pm PST on 02/22/2024)
0630 GMT on 02/23/2024:
     

Click on the graph icon in the table below to see a time series plot of the last five days of that observation.

5-day plot - Wind Direction Wind Direction (WDIR):WSW ( 250 deg true )
5-day plot - Wind Speed Wind Speed (WSPD): 5.8 kts
5-day plot - Wind Gust Wind Gust (GST): 5.8 kts
5-day plot - Atmospheric Pressure Atmospheric Pressure (PRES):30.12 in
5-day plot - Air Temperature Air Temperature (ATMP): 57.7 °F
5-day plot - Water Temperature Water Temperature (WTMP): 57.9 °F
5-day plot - Dew Point Dew Point (DEWP): 55.8 °F
5-day plot - Wind Speed at 10 Meters Wind Speed at 10 meters (WSPD10M): 5.8 kts
5-day plot - Wind Speed at 20 Meters Wind Speed at 20 meters (WSPD20M): 5.8 kts
5-day plot -  Wind Speed, Wind Gust and Atmospheric Pressure Combined plot of Wind Speed, Gust, and Air Pressure
Supplemental Measurements
Highest 1-minute Wind Speed
Time (PST)5-day plot - 1-Minute Wind Speed WSPD 5-day plot - 1-Minute Wind Direction WDIR
10:24 pm 5.8 kts-
Previous observations
TIME
(PST)
5-day plot - Wind Direction
WDIR
 
5-day plot - Wind Speed
WSPD
kts
5-day plot - Wind Gust
GST
kts
5-day plot - Wave Height
WVHT
ft
5-day plot - Dominant Wave Period
DPD
sec
5-day plot - Average Wave Period
APD
sec
5-day plot - Mean Wave Direction
MWD
 
5-day plot - Atmospheric Pressure
PRES
in
5-day plot - Pressure Tendency
PTDY
in
5-day plot - Air Temperature
ATMP
°F
5-day plot - Water Temperature
WTMP
°F
5-day plot - Dew Point
DEWP
°F
5-day plot - Salinity
SAL
psu
5-day plot - Visibility
VIS
nmi
5-day plot - Tide (above MLLW)
TIDE
ft
2024-02-22 10:20 pmWSW 5.8 7.8 3.6 156.1 W30.12- 57.7 57.9 55.8---
2024-02-22 10:10 pm W 5.8 7.8 3.6-6.1 W30.12- 57.7 57.9 55.6---
2024-02-22 10:00 pm W 5.8 7.8----30.12+0.00 57.9 57.9 55.6---
2024-02-22 09:50 pm W 5.8 7.8 3.6 106.0 W30.12- 57.9 57.9 55.6---
2024-02-22 09:40 pmWSW 5.8 7.8----30.13- 57.9 57.9 55.4---
2024-02-22 09:30 pmWSW 5.8 7.8----30.13- 57.9 57.9 55.2---
2024-02-22 09:20 pmWSW 5.8 7.8 3.9 156.1WSW30.13- 57.9 57.9 55.0---
2024-02-22 09:10 pmWSW 7.8 9.7 3.9-6.1WSW30.14- 57.9 57.9 54.9---
2024-02-22 09:00 pm W 5.8 7.8----30.13+0.01 57.9 57.9 54.5---
2024-02-22 08:50 pm W 5.8 7.8 3.6 155.6 W30.13- 58.1 57.9 54.5---
2024-02-22 08:40 pm W 7.8 9.7----30.13- 58.1 57.9 54.1---
2024-02-22 08:30 pm W 7.8 9.7----30.12- 58.3 58.1 53.8---
2024-02-22 08:20 pm W 7.8 11.7 3.9 115.9 W30.12- 58.3 58.1 54.0---
2024-02-22 08:10 pm W 9.7 11.7 3.9-5.9 W30.12- 58.5 57.9 54.0---
2024-02-22 08:00 pm W 9.7 11.7----30.12+0.00 58.5 57.9 53.6---
2024-02-22 07:50 pm W 9.7 11.7 3.9 115.8 W30.12- 58.6 58.1 54.0---
2024-02-22 07:40 pm W 9.7 11.7----30.12- 58.6 58.1 54.0---
2024-02-22 07:30 pm W 9.7 11.7----30.12- 58.5 58.1 54.1---
2024-02-22 07:20 pm W 7.8 9.7 3.9 115.7 W30.12- 58.3 58.1 54.9---
2024-02-22 07:10 pm W 5.8 9.7----30.12- 58.3 58.1 55.2---
2024-02-22 07:00 pm W 7.8 9.7----30.12+0.00 58.3 58.1 55.2---
2024-02-22 06:50 pm W 9.7 13.6 3.6 95.8 W30.12- 58.3 58.1 54.9---
2024-02-22 06:40 pm W 9.7 13.6----30.11- 58.1 58.1 54.5---
2024-02-22 06:30 pm W 9.7 13.6----30.11- 58.1 58.1 54.5---
2024-02-22 06:20 pm W 9.7 11.7 3.6 106.1 W30.12- 58.1 58.1 54.9---
2024-02-22 06:10 pm W 9.7 11.7----30.12- 58.1 58.1 54.7---
2024-02-22 06:00 pm W 9.7 11.7----30.12-0.02 58.1 58.1 54.1---
2024-02-22 05:50 pm W 9.7 11.7 3.6 106.0 W30.12- 58.1 58.1 54.1---
2024-02-22 05:40 pm W 9.7 11.7----30.11- 58.1 58.3 53.8---
2024-02-22 05:30 pm W 9.7 13.6----30.12- 58.3 58.3 53.4---
2024-02-22 05:20 pm W 11.7 13.6 3.6 166.4 SW30.11- 58.3 58.3 53.1---
2024-02-22 05:10 pm W 11.7 13.6 3.6-6.4 SW30.11- 58.3 58.3 52.9---
2024-02-22 05:00 pm W 11.7 13.6----30.12-0.04 58.5 58.5 53.2---
2024-02-22 04:50 pm W 11.7 13.6 3.6 116.7 W30.12- 58.1 58.5 53.1---
2024-02-22 04:40 pm W 11.7 13.6----30.12- 58.1 58.5 53.6---
2024-02-22 04:30 pm W 11.7 13.6----30.12- 57.9 58.6 53.8---
2024-02-22 04:20 pm W 9.7 11.7 3.9 117.8 W30.12- 57.7 58.6 54.1---
2024-02-22 04:10 pm W 9.7 11.7 3.9-7.8 W30.12- 57.9 58.6 54.7---
2024-02-22 04:00 pm W 9.7 11.7----30.12-0.05 58.1 58.8 55.0---
2024-02-22 03:50 pm W 9.7 13.6 3.9 118.2 W30.13- 57.9 58.8 54.5---
2024-02-22 03:40 pm W 9.7 13.6----30.13- 57.7 59.0 54.1---
2024-02-22 03:20 pm W 9.7 11.7 3.6 168.1 W30.13- 57.7 59.2 54.0---
2024-02-22 03:10 pm W 9.7 11.7----30.14- 57.6 59.2 53.8---
2024-02-22 03:00 pm W 9.7 11.7----30.14-0.06 57.6 59.2 54.0---
2024-02-22 02:50 pm W 7.8 11.7 3.6 117.8 W30.15- 57.6 59.4 54.0---
2024-02-22 02:40 pm W 7.8 9.7----30.15- 57.6 59.4 54.0---
2024-02-22 02:30 pmWSW 7.8 7.8----30.15- 57.4 59.4 53.6---
2024-02-22 02:20 pm W 5.8 7.8 3.9 118.4 W30.15- 57.4 59.0 53.8---
2024-02-22 02:10 pm W 7.8 9.7 3.9-8.4 W30.15- 57.2 59.0 53.8---
2024-02-22 02:00 pm W 5.8 7.8----30.16-0.06 57.2 58.8 53.8---
2024-02-22 01:50 pm W 5.8 7.8 3.9 117.8WSW30.16- 57.2 58.6 53.8---
2024-02-22 01:40 pm W 7.8 9.7 3.9-7.8WSW30.17- 57.2 58.8 53.8---
2024-02-22 01:30 pm W 7.8 9.7----30.17- 57.2 58.8 53.8---
2024-02-22 01:20 pm W 7.8 9.7 3.9 108.0 W30.17- 57.2 59.0 53.8---
2024-02-22 01:10 pm W 7.8 9.7 3.9-8.0 W30.17- 57.0 59.0 53.8---
2024-02-22 01:00 pm W 5.8 7.8----30.17-0.04 57.0 59.0 53.8---
2024-02-22 12:50 pm W 5.8 7.8 3.9 107.7 W30.18- 57.0 59.0 53.8---
2024-02-22 12:40 pmWSW 5.8 7.8 3.9-7.7 W30.18- 57.2 59.0 53.8---
2024-02-22 12:30 pmWSW 5.8 7.8----30.19- 57.0 59.2 53.2---
2024-02-22 12:20 pmWSW 5.8 5.8 4.3 107.7 W30.19- 57.0 59.2 52.9---
2024-02-22 12:10 pm SW 3.9 5.8 4.3-7.7 W30.20- 57.2 59.0 52.9---
2024-02-22 12:00 pm SW 3.9 5.8----30.20-0.01 57.2 59.0 52.7---
2024-02-22 11:50 am SW 3.9 5.8 4.3 117.6 W30.20- 57.4 58.8 52.7---
2024-02-22 11:40 am S 3.9 3.9----30.21- 57.4 58.6 52.5---
2024-02-22 11:30 am S 3.9 3.9----30.20- 57.4 58.5 52.5---
2024-02-22 11:20 am S 3.9 5.8 3.9 107.8 W30.21- 57.2 58.3 52.5---
2024-02-22 11:10 amSSE 3.9 5.8 3.9-7.8 W30.21- 57.2 58.3 52.9---
2024-02-22 11:00 am SE 5.8 7.8----30.21+0.02 57.0 58.1 52.9---
2024-02-22 10:50 am SE 5.8 7.8 3.9 107.8WSW30.21- 57.0 58.1 53.1---
2024-02-22 10:40 am SE 5.8 7.8----30.21- 57.0 58.1 52.9---
2024-02-22 10:30 am SE 5.8 7.8----30.22- 57.0 58.1 52.9---
2024-02-22 10:20 amESE 5.8 7.8 4.3 118.0 W30.22- 57.0 57.9 52.7---
2024-02-22 10:10 amESE 5.8 7.8 4.3-8.0 W30.22- 56.8 57.9 52.7---
2024-02-22 10:00 amESE 5.8 7.8----30.22+0.05 57.0 57.9 53.2---
2024-02-22 09:50 amESE 5.8 7.8 4.3 118.0 W30.22- 57.0 57.9 53.4---
2024-02-22 09:40 amESE 5.8 7.8----30.22- 57.0 57.9 53.1---
2024-02-22 09:30 amESE 5.8 7.8----30.21- 57.0 57.7 52.9---
2024-02-22 09:20 amESE 5.8 7.8 3.9 117.8 W30.21- 56.8 57.7 52.7---
2024-02-22 09:10 amESE 7.8 9.7 3.9-7.8 W30.21- 56.7 57.7 52.9---
2024-02-22 09:00 amESE 7.8 9.7----30.21+0.07 56.7 57.7 53.1---
2024-02-22 08:50 amESE 7.8 9.7 4.3 117.9 W30.20- 56.7 57.7 52.9---
2024-02-22 08:40 am E 7.8 9.7 4.3-7.9 W30.20- 56.7 57.7 52.7---
2024-02-22 08:30 am E 5.8 9.7----30.19- 56.5 57.7 52.5---
2024-02-22 08:20 am E 7.8 9.7 4.3 117.7 W30.19- 56.3 57.7 52.7---
2024-02-22 08:10 am E 5.8 9.7 4.3-7.7 W30.19- 56.3 57.7 53.2---
2024-02-22 08:00 amESE 3.9 7.8----30.19+0.07 56.7 57.7 54.5---
2024-02-22 07:50 am SE 3.9 5.8 4.3 127.6 W30.19- 57.0 57.7 54.5---
2024-02-22 07:40 am SE 1.9 3.9 4.3-7.6 W30.19- 57.6 57.7 54.5---
2024-02-22 07:30 amESE 1.9 3.9----30.18- 57.7 57.7 54.3---
2024-02-22 07:20 am- 0.0 1.9 4.3 117.7WNW30.18- 57.6 57.7 54.0---
2024-02-22 07:10 am S 1.9 3.9 4.3-7.7WNW30.17- 57.2 57.7 53.4---
2024-02-22 07:00 am S 3.9 5.8----30.17+0.04 56.8 57.7 53.4---
2024-02-22 06:50 am S 3.9 3.9 4.3 117.8 W30.17- 56.8 57.7 54.0---
2024-02-22 06:40 amSSE 3.9 3.9----30.16- 57.0 57.7 54.0---
2024-02-22 06:30 am SE 5.8 7.8----30.16- 57.2 57.7 53.4---
2024-02-22 06:20 am SE 5.8 7.8 3.9 127.2WSW30.14- 57.0 57.7 52.7---
2024-02-22 06:10 am SE 5.8 9.7 3.9-7.2WSW30.14- 57.0 57.7 53.4---
2024-02-22 06:00 am SE 5.8 5.8----30.14+0.02 57.0 57.7 53.6---
2024-02-22 05:50 amESE 5.8 7.8 3.9 116.8 W30.14- 56.8 57.7 53.6---
2024-02-22 05:40 amESE 5.8 7.8----30.13- 57.0 57.7 54.3---
2024-02-22 05:30 amESE 5.8 7.8----30.13- 57.0 57.7 54.3---
2024-02-22 05:20 am E 5.8 7.8 3.9 116.9 W30.12- 57.0 57.7 54.5---
2024-02-22 05:10 am E 5.8 7.8----30.12- 57.0 57.7 54.3---
2024-02-22 05:00 am E 5.8 7.8----30.12+0.00 57.0 57.7 54.3---
2024-02-22 04:50 am E 5.8 7.8 3.9 116.6 W30.12- 57.0 57.7 54.3---
2024-02-22 04:40 am E 5.8 7.8----30.12- 57.0 57.7 54.5---
2024-02-22 04:30 am E 5.8 7.8----30.12- 57.0 57.7 54.9---
2024-02-22 04:20 am E 5.8 7.8 4.3 126.9 NW30.12- 57.0 57.7 55.0---
2024-02-22 04:10 am E 5.8 7.8 4.3-6.9 NW30.12- 57.2 57.7 55.2---
2024-02-22 04:00 am E 3.9 5.8----30.13-0.01 56.8 57.7 54.9---
2024-02-22 03:50 amENE 3.9 5.8 4.6 126.9 W30.13- 57.0 57.7 55.4---
2024-02-22 03:40 am NE 3.9 5.8----30.13- 57.0 57.7 55.8---
2024-02-22 03:30 am NE 3.9 5.8----30.12- 57.4 57.7 56.1---
2024-02-22 03:20 amNNE 3.9 5.8 4.6 136.6WNW30.12- 57.4 57.7 55.9---
2024-02-22 03:10 amNNE 3.9 5.8 4.6-6.6WNW30.12- 57.4 57.7 55.8---
2024-02-22 03:00 amNNE 3.9 3.9----30.12-0.02 57.6 57.7 55.8---
2024-02-22 02:50 am N 1.9 3.9 4.6 126.7 SW30.12- 57.6 57.7 55.6---
2024-02-22 02:40 am N 1.9 3.9 4.6-6.7 SW30.12- 57.6 57.7 55.0---
2024-02-22 02:30 amNNE 1.9 1.9----30.12- 57.4 57.7 54.7---
2024-02-22 02:20 am NE 1.9 3.9 4.6 126.7 W30.12- 57.4 57.7 54.3---
2024-02-22 02:10 am NE 3.9 5.8 4.6-6.7 W30.12- 57.4 57.7 54.1---
2024-02-22 02:00 am NE 3.9 5.8----30.12-0.01 57.4 57.9 53.8---
2024-02-22 01:50 am N 3.9 5.8 4.9 117.0WNW30.12- 57.6 57.9 54.0---
2024-02-22 01:40 amNNW 3.9 3.9 4.9-7.0WNW30.13- 57.6 57.9 53.6---
2024-02-22 01:30 am NW 3.9 3.9----30.13- 57.6 57.9 53.4---
2024-02-22 01:20 amWNW 3.9 5.8 4.6 136.6WNW30.14- 57.7 57.9 53.8---
2024-02-22 01:10 am W 3.9 5.8 4.6-6.6WNW30.14- 57.6 57.9 52.5---
2024-02-22 01:00 am W 5.8 7.8----30.14+0.01 57.7 57.9 52.3---
2024-02-22 12:50 am W 5.8 7.8 4.9 126.7 W30.14- 57.7 57.9 52.9---
2024-02-22 12:40 am W 5.8 7.8----30.14- 57.9 57.9 53.1---
2024-02-22 12:30 am W 5.8 7.8----30.14- 57.9 57.9 52.3---
2024-02-22 12:20 am W 5.8 7.8 4.9 126.7WSW30.14- 58.1 57.9 52.3---
2024-02-22 12:10 am W 5.8 7.8 4.9-6.7WSW30.14- 58.1 57.9 52.3---
2024-02-22 12:00 am W 5.8 7.8----30.14+0.01 57.7 57.9 52.5---
2024-02-21 11:50 pmWSW 3.9 5.8 5.2 137.0 W30.14- 57.9 57.9 53.4---
2024-02-21 11:40 pm SW 3.9 5.8 5.2-7.0 W30.14- 58.5 57.9 53.4---
2024-02-21 11:30 pm SW 1.9 3.9----30.14- 58.3 57.9 51.4---
2024-02-21 11:20 pm SW 1.9 3.9 5.6 137.0 W30.14- 57.9 57.9 52.5---
2024-02-21 11:10 pm SW 1.9 3.9 5.6-7.0 W30.14- 57.6 57.9 54.0---
2024-02-21 11:00 pm SW 1.9 3.9----30.14+0.03 57.9 57.9 54.7---
2024-02-21 10:50 pm- 0.0 1.9 5.9 126.6 W30.13- 57.9 57.9 54.3---
2024-02-21 10:40 pm SW 1.9 3.9----30.14- 58.1- 54.0---
2024-02-21 10:30 pm- 0.0 1.9----30.14- 58.1 58.1 53.4---
2024-02-21 10:20 pm W 1.9 3.9 5.6 136.7WNW30.14- 58.1 58.1 53.4---
2024-02-21 10:10 pm- 0.0 1.9 5.6-6.7WNW30.13- 57.9 58.1 53.4---
2024-02-21 10:00 pmNNW 1.9 3.9----30.13+0.02 58.1- 54.3---
2024-02-21 09:50 pmWNW 3.9 7.8 5.9 136.7 W30.12- 58.1 58.1 53.8---

Detailed Wave Summary
for 46053 as of
(10:10 pm PST on 02/22/2024)
0610 GMT on 02/23/2024:

These wave data are displayed in rounded times.

     

Click on the graph icon in the table below to see a time series plot of the last five days of that observation.

5-day plot - Significant Wave Height Significant Wave Height (WVHT): 3.6 ft
5-day plot - Swell Height Swell Height (SwH): 3.3 ft
5-day plot - Swell Period Swell Period (SwP): 14.8 sec
5-day plot - Swell Direction Swell Direction (SwD): W
5-day plot - Wind Wave Height Wind Wave Height (WWH): 1.3 ft
5-day plot - Wind Wave Period Wind Wave Period (WWP): 3.8 sec
5-day plot - Wind Wave Direction Wind Wave Direction (WWD): W
5-day plot - Wave Steepness Wave Steepness (STEEPNESS): SWELL
5-day plot - Average Wave Period Average Wave Period (APD): 6.1 sec
Previous observations
TIME
(PST)
5-day plot - Wave Height
WVHT
ft
5-day plot - Swell Height
SwH
ft
5-day plot - Swell Period
SwP
sec
5-day plot - Swell Direction
SwD
 
5-day plot - Wind Wave Height
WWH
ft
5-day plot - Wind Wave Period
WWP
sec
5-day plot - Wind Wave Direction
WWD
 
5-day plot - Wave Steepness
STEEPNESS
 
5-day plot - Average Wave Period
APD
sec
2024-02-22 09:40 pm 3.6 3.3 10.0 W 1.3 4.0 W SWELL 6.0
2024-02-22 09:10 pm 3.9 3.6 14.8WSW 1.3 3.7 W SWELL 6.1
2024-02-22 08:40 pm 3.6 3.3 14.8 W 1.6 3.7 W SWELL 5.6
2024-02-22 08:10 pm 3.9 3.6 10.8 W 1.6 4.3 W SWELL 5.9
2024-02-22 07:40 pm 3.9 3.6 11.4 W 2.0 4.2 W SWELL 5.8
2024-02-22 07:10 pm 3.9 3.6 11.4 W 1.6 3.1 W SWELL 5.7
2024-02-22 06:40 pm 3.6 3.3 9.1 W 1.6 5.0 W SWELL 5.8
2024-02-22 06:10 pm 3.6 3.3 10.0 W 1.3 2.7 W SWELL 6.1
2024-02-22 05:40 pm 3.6 3.3 10.0 W 1.3 2.4 W SWELL 6.0
2024-02-22 05:10 pm 3.6 3.6 16.0 SW 1.3 5.3 W SWELL 6.4
2024-02-22 04:40 pm 3.6 3.3 10.8 W 1.3 5.0 WSW SWELL 6.7
2024-02-22 04:10 pm 3.9 3.9 11.4 W 1.0 4.2 W SWELL 7.8
2024-02-22 03:40 pm 3.9 3.6 11.4 W 1.0 4.5 WSW SWELL 8.2
2024-02-22 03:10 pm 3.6 3.6 16.0 W 1.0 4.5 WSW SWELL 8.1
2024-02-22 02:40 pm 3.6 3.6 10.8 W 0.7 3.7 W SWELL 7.8
2024-02-22 02:10 pm 3.9 3.9 10.8 W 0.7 3.7 WNW SWELL 8.4
2024-02-22 01:40 pm 3.9 3.9 10.8WSW 0.7 3.8 W SWELL 7.8
2024-02-22 01:10 pm 3.9 3.9 10.0 W 0.7 3.7 W SWELL 8.0
2024-02-22 12:40 pm 3.9 3.9 10.0 W 0.7 2.9 S SWELL 7.7
2024-02-22 12:10 pm 4.3 3.9 10.0 W 1.0 3.8 W SWELL 7.7
2024-02-22 11:40 am 4.3 4.3 10.8 W 1.0 3.8 W SWELL 7.6
2024-02-22 11:10 am 3.9 3.9 10.0 W 0.7 4.0 W SWELL 7.8
2024-02-22 10:40 am 3.9 3.9 10.0WSW 0.7 3.8 W SWELL 7.8
2024-02-22 10:10 am 4.3 3.9 11.4 W 0.7 4.0 W SWELL 8.0
2024-02-22 09:40 am 4.3 4.3 11.4 W 1.0 3.0 W SWELL 8.0
2024-02-22 09:10 am 3.9 3.9 10.8 W 1.0 3.4 W SWELL 7.8
2024-02-22 08:40 am 4.3 3.9 11.4 W 1.0 3.6 W SWELL 7.9
2024-02-22 08:10 am 4.3 3.9 10.8 W 1.0 3.3 W SWELL 7.7
2024-02-22 07:40 am 4.3 3.9 12.1 W 1.0 4.0 W SWELL 7.6
2024-02-22 07:10 am 4.3 4.3 11.4WNW 1.0 3.3 W SWELL 7.7
2024-02-22 06:40 am 4.3 4.3 11.4 W 1.0 3.6 W SWELL 7.8
2024-02-22 06:10 am 3.9 3.9 12.1WSW 1.0 3.7 W SWELL 7.2
2024-02-22 05:40 am 3.9 3.6 11.4 W 1.0 3.7 W SWELL 6.8
2024-02-22 05:10 am 3.9 3.9 11.4 W 1.0 3.7 W SWELL 6.9
2024-02-22 04:40 am 3.9 3.9 11.4 W 1.0 4.0 W SWELL 6.6
2024-02-22 04:10 am 4.3 4.3 12.1 NW 1.3 3.8 W SWELL 6.9
2024-02-22 03:40 am 4.6 4.3 12.1 W 1.3 4.0 W SWELL 6.9
2024-02-22 03:10 am 4.6 4.3 12.9WNW 1.3 3.8 W SWELL 6.6
2024-02-22 02:40 am 4.6 4.3 12.1 SW 1.3 4.0 W SWELL 6.7
2024-02-22 02:10 am 4.6 4.3 12.1 W 1.3 3.7 W SWELL 6.7
2024-02-22 01:40 am 4.9 4.6 11.4WNW 1.3 3.8 W SWELL 7.0
2024-02-22 01:10 am 4.6 4.3 12.9WNW 1.3 3.8 W SWELL 6.6
2024-02-22 12:40 am 4.9 4.6 12.1 W 1.3 3.6 W SWELL 6.7
2024-02-22 12:10 am 4.9 4.6 12.1WSW 1.6 4.0 W SWELL 6.7
2024-02-21 11:40 pm 5.2 5.2 12.9 W 1.6 4.0 W SWELL 7.0
2024-02-21 11:10 pm 5.6 5.2 12.9 W 1.6 4.0 W SWELL 7.0
2024-02-21 10:40 pm 5.9 5.6 12.1 W 1.6 3.4 W SWELL 6.6
2024-02-21 10:10 pm 5.6 5.6 12.9WNW 1.6 3.8 W SWELL 6.7

Plot of wave energy versus frequency (and period)